Flag for Canada Weather past 2 weeks in Inuvik, Northwest Territories, Canada

Now
43 °F

Fog.


Feels Like: 43 °F
Forecast: 38 / 43 °F
Wind: 2 mph from Northeast

Location: Inuvik

Current Time: Sep 21, 2014 at 4:52:40 AM

Latest Report: Sep 21, 2014 at 4:00 AM


Visibility: 6 mi

Pressure: 29.59 "Hg

Humidity: 100%

Dew point: 43 °F

Location of InuvikLocation

Historic Weather in Inuvik — Graph

°F

Inuvik temperature yesterday

Maximum temperature yesterday: 45 °F (at 7:00 PM)
Minimum temperature yesterday: 39 °F (at 5:00 AM)
Average temperature yesterday: 42 °F

Past Weeks' High & Low Weather Summary

 TemperatureHumidityPressure
High57 °F (Sep 9, 5:00 PM)100% (Sep 6, 9:00 AM)30.37 "Hg (Sep 6, 9:00 AM)
Low27 °F (Sep 12, 4:00 AM)25% (Sep 9, 8:00 PM)29.45 "Hg (Sep 17, 7:00 AM)
Average41 °F78%29.92 "Hg
* Reported Sep 6 3:00 AM — Sep 21 3:00 AM, Inuvik, Weather by CustomWeather, © 2014

Note: Actual official high and low records may vary slightly from our data, if they occured in-between our weather recording intervals... More about our weather records

Advertising

Inuvik weather history for previous 24 hours

 ConditionsComfort  
Time TempWeatherWind HumidityBarometerVisibility
3:00 AM
Sep 21
43 °FMostly cloudy.3 mph100%29.58 "Hg15 mi
2:00 AM43 °FLight rain. Low clouds.5 mph93%29.57 "Hg15 mi
1:00 AM43 °FLight rain. Low clouds.5 mph100%29.56 "Hg15 mi
12:00 AM43 °FLow clouds.5 mph100%29.56 "Hg15 mi
11:00 PM
Sep 20
43 °FLow clouds.5 mph100%29.56 "Hg15 mi
10:00 PM43 °FLight rain. More clouds than sun.5 mph100%29.56 "Hg10 mi
9:00 PM45 °FDrizzle. Fog.5 mph93%29.56 "Hg6 mi
8:00 PM45 °FDrizzle. Fog.5 mph93%29.57 "Hg2 mi
7:56 PM45 °FDrizzle. Fog.5 mph93%29.57 "Hg2 mi
7:00 PM45 °FLight rain. Mostly cloudy.5 mph93%29.57 "Hg10 mi
6:00 PM43 °FLight rain. Mostly cloudy.6 mph100%29.57 "Hg8 mi
5:00 PM43 °FLight rain. More clouds than sun.6 mph93%29.58 "Hg10 mi
4:00 PM43 °FLight rain. More clouds than sun.8 mph93%29.58 "Hg8 mi
3:00 PM43 °FLight rain. More clouds than sun.8 mph93%29.59 "Hg20 mi
2:00 PM43 °FLight rain. Overcast.6 mph93%29.60 "Hg15 mi
1:00 PM43 °FMore clouds than sun.8 mph93%29.60 "Hg15 mi
12:00 PM43 °FOvercast.5 mph87%29.61 "Hg15 mi
11:00 AM41 °FOvercast.8 mph93%29.62 "Hg15 mi
7:00 AM39 °FPassing clouds.5 mph93%29.64 "Hg15 mi
6:00 AM41 °FOvercast.7 mph87%29.65 "Hg15 mi
5:00 AM39 °FOvercast.6 mph93%29.65 "Hg15 mi
4:00 AM41 °FOvercast.6 mph87%29.65 "Hg15 mi
Weather by CustomWeather, © 2014

See weather overviewHow to use our weather pages